This demonstration page uses our WeatherBlox Daily Observations layout. Learn more.

Left ArrowRight Arrow

Hourly Observations for February 5, 2020

Temp ( °F °C ) Dew Point ( °F °C ) Humidity (%) Winds ( mph kmh ) Pressure ( in mb ) Visibility ( mi km ) Precip ( " mm )
12:04 am 00:04 Cloudy 34 1.1 29 -1.7 82 82 NE 13 20 30.03 1017 10 16 N/A
12:53 am 00:53 Cloudy with Mist and Fog 34 1.1 31 -0.6 89 89 NE 7 11 30.01 1016 5 8 N/A
1:53 am 01:53 Cloudy 35 1.7 28 -2.2 76 76 NE 12 19 30.03 1017 10 16 N/A
2:53 am 02:53 Cloudy 34 1.1 29 -1.7 82 82 NE 10 17 30.03 1017 10 16 N/A
3:05 am 03:05 Cloudy 34 1.1 28 -2.2 79 79 NNE 8 13 30.07 1018 10 16 N/A
3:30 am 03:30 Cloudy 34 1.1 27 -2.8 76 76 NNE 14 22 30.07 1018 10 16 N/A
3:41 am 03:41 Cloudy 34 1.1 26 -3.3 73 73 NNE 13 20 30.09 1019 10 16 N/A
3:53 am 03:53 Cloudy 34 1.1 26 -3.3 73 73 NNE 13 20 30.06 1018 10 16 N/A
4:53 am 04:53 Cloudy 34 1.1 23 -5 64 64 NNE 9 15 30.08 1019 10 16 N/A
5:53 am 05:53 Cloudy 34 1.1 24 -4.4 67 67 NE 14 22 30.09 1019 10 16 N/A
6:53 am 06:53 Cloudy 34 1.1 24 -4.4 67 67 NE 12 19 30.09 1019 10 16 N/A
7:53 am 07:53 Cloudy 34 1.1 25 -3.9 70 70 ENE 14 22 30.09 1019 10 16 N/A
8:53 am 08:53 Cloudy 34 1.1 25 -3.9 70 70 ENE 12 19 30.07 1018 10 16 N/A
9:53 am 09:53 Cloudy 34 1.1 25 -3.9 70 70 ENE 8 13 30.09 1019 10 16 N/A
10:53 am 10:53 Cloudy 35 1.7 24 -4.4 64 64 ENE 16 26 30.06 1018 10 16 N/A
11:53 am 11:53 Cloudy 37 2.8 25 -3.9 62 62 E 13 20 30.03 1017 10 16 N/A
12:53 pm 12:53 Cloudy 37 2.8 26 -3.3 65 65 ENE 14 22 30.00 1016 10 16 N/A
1:53 pm 13:53 Cloudy 37 2.8 27 -2.8 67 67 ENE 15 24 29.93 1014 10 16 N/A
2:53 pm 14:53 Cloudy 37 2.8 28 -2.2 70 70 E 12 19 29.90 1012 10 16 N/A
3:53 pm 15:53 Cloudy 37 2.8 28 -2.2 70 70 ENE 12 19 29.86 1011 10 16 N/A
4:53 pm 16:53 Cloudy 36 2.2 30 -1.1 79 79 ENE 14 22 29.80 1009 9 14 0.00 0.00
5:43 pm 17:43 Cloudy with Heavy Rain 34 1.1 31 -0.6 89 89 ENE 13 20 29.80 1009 2 3 0.06 1.52
5:51 pm 17:51 Cloudy with Heavy Rain 34 1 32 undefined 93 93 E 10 17 29.80 1009 2 2 0.09 2.29
5:53 pm 17:53 Cloudy with Heavy Rain 34 1.1 32 undefined 92 92 E 9 15 29.78 1009 2 2 0.10 2.54
5:56 pm 17:56 Cloudy with Rain 34 1.1 32 undefined 92 92 E 9 15 29.79 1009 2 3 0.01 0.25
6:04 pm 18:04 Cloudy with Heavy Rain 34 1.1 32 undefined 92 92 E 9 15 29.79 1009 3 4 0.06 1.52
6:24 pm 18:24 Cloudy with Rain 34 1.1 32 undefined 92 92 ENE 9 15 29.79 1009 3 5 0.13 3.30
6:40 pm 18:40 Cloudy with Light Rain 34 1.1 32 undefined 92 92 ENE 12 19 29.77 1008 6 10 0.13 3.30
6:53 pm 18:53 Cloudy with Light Rain 34 1.1 32 undefined 92 92 NE 8 13 29.76 1008 7 11 0.14 3.56
6:56 pm 18:56 Cloudy with Light Rain 34 1.1 32 undefined 92 92 NE 7 11 29.77 1008 7 11 0.00 0.00
7:04 pm 19:04 Cloudy with Light Rain 34 1.1 32 undefined 92 92 NNE 8 13 29.78 1008 8 13 0.00 0.00
7:53 pm 19:53 Cloudy with Light Rain 34 1.1 32 undefined 92 92 NNE 8 13 29.76 1008 9 14 0.01 0.25
8:07 pm 20:07 Cloudy 34 1.1 32 undefined 92 92 N 9 15 29.81 1009 10 16 0.00 0.00
8:14 pm 20:14 Cloudy with Light Rain 34 1.1 32 undefined 92 92 N 9 15 29.80 1009 10 16 0.00 0.00
8:41 pm 20:41 Cloudy with Light Wintry Mix 34 1.1 32 undefined 92 92 NE 12 19 29.78 1008 3 4 0.00 0.00
8:53 pm 20:53 Cloudy with Mist and Fog 33 0.6 32 undefined 96 96 NE 12 19 29.76 1008 3 5 0.01 0.25
9:53 pm 21:53 Cloudy with Mist and Fog 33 0.6 31 -0.6 92 92 ENE 9 15 29.68 1005 6 10 0.00 0.00
10:53 pm 22:53 Cloudy with Mist and Fog 34 1.1 32 undefined 92 92 NE 5 7 29.69 1006 5 8 N/A
11:53 pm 23:53 Cloudy with Mist and Fog 33 0.6 32 undefined 96 96 NE 8 13 29.64 1004 3 5 N/A

Powered by AerisWeather